contact:dominique.lefevre@mio.osupytheas.fr, maurice.libes@osupytheas.fr, didier.mallarino@osupytheas.fr
Project:EMSO http://www.emso-fr.org/EMSO-France
Depth: 2436.0 m
Title:EMSO Ligure Ouest : Data MII capteur CSTAR
DateTime,Latitude,Longitude,Instrument_Serial,Reference_Counts,Signal_Counts,Corrected_Signal_raw_counts,Calculated_Beam_c_inverse_meters,Internal_thermistor_counts
DateTime,Latitude,Longitude,Instrument_Serial,Reference_Counts,Signal_Counts,Corrected_Signal_raw_counts,Calculated_Beam_c_inverse_meters,Internal_thermistor_counts
2022-10-14T00:01:50,42.805,6.029,CST-1368DR,4543,5031,11785,01.126,551
2022-10-14T00:04:51,42.805,6.029,CST-1368DR,4543,5034,11791,01.124,551
2022-10-14T00:07:53,42.805,6.029,CST-1368DR,4543,5031,11783,01.127,551
2022-10-14T00:10:54,42.805,6.029,CST-1368DR,4543,5031,11785,01.126,551
2022-10-14T00:13:56,42.805,6.029,CST-1368DR,4543,5034,11792,01.123,551
2022-10-14T00:16:58,42.805,6.029,CST-1368DR,4543,5031,11783,01.127,551
2022-10-14T00:19:59,42.805,6.029,CST-1368DR,4543,5036,11796,01.122,551
2022-10-14T00:23:01,42.805,6.029,CST-1368DR,4543,5034,11792,01.123,551
2022-10-14T00:26:02,42.805,6.029,CST-1368DR,4543,5034,11790,01.124,551
2022-10-14T00:29:04,42.805,6.029,CST-1368DR,4543,5035,11794,01.123,551
2022-10-14T00:32:06,42.805,6.029,CST-1368DR,4543,5036,11795,01.122,551
2022-10-14T00:35:07,42.805,6.029,CST-1368DR,4543,5032,11787,01.125,551
2022-10-14T00:38:09,42.805,6.029,CST-1368DR,4543,5035,11793,01.123,551
2022-10-14T00:41:10,42.805,6.029,CST-1368DR,4543,5034,11792,01.123,551
2022-10-14T00:44:12,42.805,6.029,CST-1368DR,4543,5031,11784,01.126,551
2022-10-14T00:47:13,42.805,6.029,CST-1368DR,4543,5033,11790,01.124,551
2022-10-14T00:50:15,42.805,6.029,CST-1368DR,4543,5035,11793,01.123,551
2022-10-14T00:53:17,42.805,6.029,CST-1368DR,4543,5033,11790,01.124,551
2022-10-14T00:56:18,42.805,6.029,CST-1368DR,4543,5035,11793,01.123,551
2022-10-14T00:59:20,42.805,6.029,CST-1368DR,4543,5032,11787,01.125,551
2022-10-14T01:02:21,42.805,6.029,CST-1368DR,4543,5034,11790,01.124,551
2022-10-14T01:05:23,42.805,6.029,CST-1368DR,4543,5031,11785,01.126,551
2022-10-14T01:08:24,42.805,6.029,CST-1368DR,4543,5032,11787,01.125,551
2022-10-14T01:11:26,42.805,6.029,CST-1368DR,4543,5033,11790,01.124,551
2022-10-14T01:14:28,42.805,6.029,CST-1368DR,4543,5035,11794,01.123,551
2022-10-14T01:17:29,42.805,6.029,CST-1368DR,4543,5033,11790,01.124,551
2022-10-14T01:20:31,42.805,6.029,CST-1368DR,4543,5034,11791,01.124,551
2022-10-14T01:23:32,42.805,6.029,CST-1368DR,4543,5038,11801,01.120,551
2022-10-14T01:26:34,42.805,6.029,CST-1368DR,4543,5033,11789,01.125,551
2022-10-14T01:29:36,42.805,6.029,CST-1368DR,4543,5036,11796,01.122,551
2022-10-14T01:32:37,42.805,6.029,CST-1368DR,4543,5033,11789,01.125,551
2022-10-14T01:35:39,42.805,6.029,CST-1368DR,4543,5035,11794,01.123,551
2022-10-14T01:38:40,42.805,6.029,CST-1368DR,4543,5040,11804,01.119,551
2022-10-14T01:41:42,42.805,6.029,CST-1368DR,4543,5036,11797,01.122,551
2022-10-14T01:44:43,42.805,6.029,CST-1368DR,4543,5035,11794,01.123,551
2022-10-14T01:47:45,42.805,6.029,CST-1368DR,4543,5035,11793,01.123,551
2022-10-14T01:50:47,42.805,6.029,CST-1368DR,4543,5038,11800,01.121,551
2022-10-14T01:53:48,42.805,6.029,CST-1368DR,4543,5036,11795,01.122,551
2022-10-14T01:56:50,42.805,6.029,CST-1368DR,4543,5033,11789,01.125,551
2022-10-14T01:59:51,42.805,6.029,CST-1368DR,4543,5032,11787,01.125,551
2022-10-14T02:02:53,42.805,6.029,CST-1368DR,4543,5042,11811,01.117,551
2022-10-14T02:05:54,42.805,6.029,CST-1368DR,4543,5039,11802,01.120,551
2022-10-14T02:08:56,42.805,6.029,CST-1368DR,4543,5039,11802,01.120,551
2022-10-14T02:11:58,42.805,6.029,CST-1368DR,4543,5043,11812,01.117,551
2022-10-14T02:14:59,42.805,6.029,CST-1368DR,4543,5036,11795,01.122,551
2022-10-14T02:18:01,42.805,6.029,CST-1368DR,4543,5036,11797,01.122,551
2022-10-14T02:21:02,42.805,6.029,CST-1368DR,4543,5035,11794,01.123,551
2022-10-14T02:24:04,42.805,6.029,CST-1368DR,4543,5040,11804,01.119,551
2022-10-14T02:27:06,42.805,6.029,CST-1368DR,4543,5038,11800,01.121,551
2022-10-14T02:30:07,42.805,6.029,CST-1368DR,4543,5039,11803,01.120,551
2022-10-14T02:33:09,42.805,6.029,CST-1368DR,4543,5036,11796,01.122,551
2022-10-14T02:36:10,42.805,6.029,CST-1368DR,4543,5035,11794,01.123,551
2022-10-14T02:39:12,42.805,6.029,CST-1368DR,4543,5042,11810,01.117,551
2022-10-14T02:42:13,42.805,6.029,CST-1368DR,4543,5037,11799,01.121,551
2022-10-14T02:45:15,42.805,6.029,CST-1368DR,4543,5033,11788,01.125,551
2022-10-14T02:48:17,42.805,6.029,CST-1368DR,4543,5038,11801,01.120,551
2022-10-14T02:51:18,42.805,6.029,CST-1368DR,4543,5036,11796,01.122,551
2022-10-14T02:54:20,42.805,6.029,CST-1368DR,4543,5041,11807,01.118,551
2022-10-14T02:57:21,42.805,6.029,CST-1368DR,4543,5038,11800,01.121,551
2022-10-14T03:00:23,42.805,6.029,CST-1368DR,4543,5036,11796,01.122,551
2022-10-14T03:03:24,42.805,6.029,CST-1368DR,4543,5034,11792,01.123,551
2022-10-14T03:06:26,42.805,6.029,CST-1368DR,4543,5036,11795,01.122,551
2022-10-14T03:09:28,42.805,6.029,CST-1368DR,4543,5034,11792,01.123,551
2022-10-14T03:12:29,42.805,6.029,CST-1368DR,4543,5036,11796,01.122,551
2022-10-14T03:15:31,42.805,6.029,CST-1368DR,4543,5037,11798,01.121,551
2022-10-14T03:18:32,42.805,6.029,CST-1368DR,4543,5037,11798,01.121,551
2022-10-14T03:21:34,42.805,6.029,CST-1368DR,4543,5039,11804,01.119,551
2022-10-14T03:24:36,42.805,6.029,CST-1368DR,4543,5040,11804,01.119,551
2022-10-14T03:27:37,42.805,6.029,CST-1368DR,4543,5049,11825,01.112,551
2022-10-14T03:30:39,42.805,6.029,CST-1368DR,4543,5037,11797,01.122,551
2022-10-14T03:33:40,42.805,6.029,CST-1368DR,4543,5034,11792,01.123,551
2022-10-14T03:36:42,42.805,6.029,CST-1368DR,4543,5037,11799,01.121,551
2022-10-14T03:39:43,42.805,6.029,CST-1368DR,4543,5040,11805,01.119,551
2022-10-14T03:42:45,42.805,6.029,CST-1368DR,4543,5039,11803,01.120,551
2022-10-14T03:45:47,42.805,6.029,CST-1368DR,4543,5036,11796,01.122,551
2022-10-14T03:48:48,42.805,6.029,CST-1368DR,4543,5038,11800,01.121,551
2022-10-14T03:51:50,42.805,6.029,CST-1368DR,4543,5035,11794,01.123,551
2022-10-14T03:54:51,42.805,6.029,CST-1368DR,4543,5037,11797,01.122,551
2022-10-14T03:57:53,42.805,6.029,CST-1368DR,4543,5033,11790,01.124,551
2022-10-14T04:00:54,42.805,6.029,CST-1368DR,4543,5034,11792,01.123,551
2022-10-14T04:03:56,42.805,6.029,CST-1368DR,4543,5037,11797,01.122,551
2022-10-14T04:06:58,42.805,6.029,CST-1368DR,4543,5034,11791,01.124,551
2022-10-14T04:09:59,42.805,6.029,CST-1368DR,4543,5035,11794,01.123,551
2022-10-14T04:13:01,42.805,6.029,CST-1368DR,4543,5036,11797,01.122,551
2022-10-14T04:16:02,42.805,6.029,CST-1368DR,4543,5036,11796,01.122,551
2022-10-14T04:19:04,42.805,6.029,CST-1368DR,4543,5031,11783,01.127,551
2022-10-14T04:22:06,42.805,6.029,CST-1368DR,4543,5035,11793,01.123,551
2022-10-14T04:25:07,42.805,6.029,CST-1368DR,4543,5039,11802,01.120,551
2022-10-14T04:28:09,42.805,6.029,CST-1368DR,4543,5033,11789,01.125,551
2022-10-14T04:31:10,42.805,6.029,CST-1368DR,4543,5035,11793,01.123,551
2022-10-14T04:34:12,42.805,6.029,CST-1368DR,4543,5034,11790,01.124,551
2022-10-14T04:37:13,42.805,6.029,CST-1368DR,4543,5038,11800,01.121,551
2022-10-14T04:40:15,42.805,6.029,CST-1368DR,4543,5039,11803,01.120,551
2022-10-14T04:43:17,42.805,6.029,CST-1368DR,4543,5037,11799,01.121,551
2022-10-14T04:46:18,42.805,6.029,CST-1368DR,4543,5035,11794,01.123,551
2022-10-14T04:49:20,42.805,6.029,CST-1368DR,4543,5034,11792,01.123,551
2022-10-14T04:52:21,42.805,6.029,CST-1368DR,4543,5035,11793,01.123,551
2022-10-14T04:55:23,42.805,6.029,CST-1368DR,4543,5040,11805,01.119,551
2022-10-14T04:58:25,42.805,6.029,CST-1368DR,4543,5034,11792,01.123,551
2022-10-14T05:01:26,42.805,6.029,CST-1368DR,4543,5034,11791,01.124,551
2022-10-14T05:04:28,42.805,6.029,CST-1368DR,4543,5034,11792,01.123,551
2022-10-14T05:07:29,42.805,6.029,CST-1368DR,4543,5036,11796,01.122,551
2022-10-14T05:10:31,42.805,6.029,CST-1368DR,4543,5036,11797,01.122,551
2022-10-14T05:13:32,42.805,6.029,CST-1368DR,4543,5033,11789,01.125,551
2022-10-14T05:16:34,42.805,6.029,CST-1368DR,4543,5034,11791,01.124,551
2022-10-14T05:19:36,42.805,6.029,CST-1368DR,4543,5031,11785,01.126,551
2022-10-14T05:22:37,42.805,6.029,CST-1368DR,4543,5034,11792,01.123,551
2022-10-14T05:25:39,42.805,6.029,CST-1368DR,4543,5035,11793,01.123,551
2022-10-14T05:28:40,42.805,6.029,CST-1368DR,4543,5035,11794,01.123,551
2022-10-14T05:31:42,42.805,6.029,CST-1368DR,4543,5033,11789,01.125,551
2022-10-14T05:34:43,42.805,6.029,CST-1368DR,4543,5033,11789,01.125,551
2022-10-14T05:37:45,42.805,6.029,CST-1368DR,4543,5035,11794,01.123,551
2022-10-14T05:40:47,42.805,6.029,CST-1368DR,4543,5034,11792,01.123,551
2022-10-14T05:43:48,42.805,6.029,CST-1368DR,4543,5033,11790,01.124,551
2022-10-14T05:46:50,42.805,6.029,CST-1368DR,4543,5034,11790,01.124,551
2022-10-14T05:49:51,42.805,6.029,CST-1368DR,4543,5036,11797,01.122,551
2022-10-14T05:52:53,42.805,6.029,CST-1368DR,4543,5035,11794,01.123,551
2022-10-14T05:55:54,42.805,6.029,CST-1368DR,4543,5032,11787,01.125,551
2022-10-14T05:58:56,42.805,6.029,CST-1368DR,4543,5034,11790,01.124,551
2022-10-14T06:01:58,42.805,6.029,CST-1368DR,4543,5033,11789,01.125,551
2022-10-14T06:04:59,42.805,6.029,CST-1368DR,4543,5034,11790,01.124,551
2022-10-14T06:08:01,42.805,6.029,CST-1368DR,4543,5032,11787,01.125,551
2022-10-14T06:11:02,42.805,6.029,CST-1368DR,4543,5036,11796,01.122,551
2022-10-14T06:14:04,42.805,6.029,CST-1368DR,4543,5034,11790,01.124,551
2022-10-14T06:17:06,42.805,6.029,CST-1368DR,4543,5034,11792,01.123,551
2022-10-14T06:20:07,42.805,6.029,CST-1368DR,4543,5033,11789,01.125,551
2022-10-14T06:23:09,42.805,6.029,CST-1368DR,4543,5034,11790,01.124,551
2022-10-14T06:26:10,42.805,6.029,CST-1368DR,4543,5034,11790,01.124,551
2022-10-14T06:29:12,42.805,6.029,CST-1368DR,4543,5033,11789,01.125,551
2022-10-14T06:32:13,42.805,6.029,CST-1368DR,4543,5033,11790,01.124,551
2022-10-14T06:35:15,42.805,6.029,CST-1368DR,4543,5033,11788,01.125,551
2022-10-14T06:38:17,42.805,6.029,CST-1368DR,4543,5031,11784,01.126,551
2022-10-14T06:41:18,42.805,6.029,CST-1368DR,4543,5033,11789,01.125,551
2022-10-14T06:44:20,42.805,6.029,CST-1368DR,4543,5032,11787,01.125,551
2022-10-14T06:47:21,42.805,6.029,CST-1368DR,4543,5032,11787,01.125,551
2022-10-14T06:50:23,42.805,6.029,CST-1368DR,4543,5034,11792,01.123,551
2022-10-14T06:53:24,42.805,6.029,CST-1368DR,4543,5034,11791,01.124,551
2022-10-14T06:56:26,42.805,6.029,CST-1368DR,4543,5032,11787,01.125,551
2022-10-14T06:59:28,42.805,6.029,CST-1368DR,4543,5031,11785,01.126,551
2022-10-14T07:02:29,42.805,6.029,CST-1368DR,4543,5031,11783,01.127,551
2022-10-14T07:05:31,42.805,6.029,CST-1368DR,4543,5032,11786,01.126,551
2022-10-14T07:08:32,42.805,6.029,CST-1368DR,4542,5033,11791,01.124,551
2022-10-14T07:11:34,42.805,6.029,CST-1368DR,4543,5033,11788,01.125,551
2022-10-14T07:14:36,42.805,6.029,CST-1368DR,4543,5033,11789,01.125,551
2022-10-14T07:17:37,42.805,6.029,CST-1368DR,4543,5032,11787,01.125,551
2022-10-14T07:20:39,42.805,6.029,CST-1368DR,4543,5034,11791,01.124,551
2022-10-14T07:23:40,42.805,6.029,CST-1368DR,4543,5033,11788,01.125,551
2022-10-14T07:26:42,42.805,6.029,CST-1368DR,4543,5034,11790,01.124,551
2022-10-14T07:29:43,42.805,6.029,CST-1368DR,4543,5031,11785,01.126,551
2022-10-14T07:32:45,42.805,6.029,CST-1368DR,4543,5027,11775,01.129,551
2022-10-14T07:35:47,42.805,6.029,CST-1368DR,4543,5029,11780,01.128,551
2022-10-14T07:38:48,42.805,6.029,CST-1368DR,4543,5024,11768,01.132,551
2022-10-14T07:41:50,42.805,6.029,CST-1368DR,4542,5029,11783,01.127,551
2022-10-14T07:44:51,42.805,6.029,CST-1368DR,4543,5028,11776,01.129,551
2022-10-14T07:47:53,42.805,6.029,CST-1368DR,4543,5028,11776,01.129,551
2022-10-14T07:50:54,42.805,6.029,CST-1368DR,4543,5030,11781,01.127,551
2022-10-14T07:53:56,42.805,6.029,CST-1368DR,4543,5029,11780,01.128,551
2022-10-14T07:56:58,42.805,6.029,CST-1368DR,4543,5031,11784,01.126,551
2022-10-14T07:59:59,42.805,6.029,CST-1368DR,4543,5030,11782,01.127,551
2022-10-14T08:03:01,42.805,6.029,CST-1368DR,4542,5027,11778,01.128,551
2022-10-14T08:06:02,42.805,6.029,CST-1368DR,4543,5029,11779,01.128,551
2022-10-14T08:09:04,42.805,6.029,CST-1368DR,4543,5029,11780,01.128,551
2022-10-14T08:12:06,42.805,6.029,CST-1368DR,4543,5030,11782,01.127,551
2022-10-14T08:15:07,42.805,6.029,CST-1368DR,4543,5028,11777,01.129,551
2022-10-14T08:18:09,42.805,6.029,CST-1368DR,4543,5028,11778,01.128,551
2022-10-14T08:21:10,42.805,6.029,CST-1368DR,4543,5026,11773,01.130,551
2022-10-14T08:24:12,42.805,6.029,CST-1368DR,4543,5028,11777,01.129,551
2022-10-14T08:27:13,42.805,6.029,CST-1368DR,4543,5030,11781,01.127,551
2022-10-14T08:30:15,42.805,6.029,CST-1368DR,4543,5029,11779,01.128,551
2022-10-14T08:33:17,42.805,6.029,CST-1368DR,4543,5028,11778,01.128,551
2022-10-14T08:36:18,42.805,6.029,CST-1368DR,4543,5028,11778,01.128,551
2022-10-14T08:39:20,42.805,6.029,CST-1368DR,4542,5025,11773,01.130,551
2022-10-14T08:42:21,42.805,6.029,CST-1368DR,4543,5028,11776,01.129,551
2022-10-14T08:45:23,42.805,6.029,CST-1368DR,4543,5029,11780,01.128,551
2022-10-14T08:48:24,42.805,6.029,CST-1368DR,4542,5027,11777,01.129,551
2022-10-14T08:51:26,42.805,6.029,CST-1368DR,4542,5028,11781,01.127,551
2022-10-14T08:54:28,42.805,6.029,CST-1368DR,4542,5027,11776,01.129,551
2022-10-14T08:57:29,42.805,6.029,CST-1368DR,4543,5028,11778,01.128,551
2022-10-14T09:00:31,42.805,6.029,CST-1368DR,4542,5027,11777,01.129,551
2022-10-14T09:03:32,42.805,6.029,CST-1368DR,4542,5028,11781,01.127,551
2022-10-14T09:06:34,42.805,6.029,CST-1368DR,4543,5026,11773,01.130,551
2022-10-14T09:09:36,42.805,6.029,CST-1368DR,4542,5027,11777,01.129,551
2022-10-14T09:12:37,42.805,6.029,CST-1368DR,4543,5028,11777,01.129,551
2022-10-14T09:15:39,42.805,6.029,CST-1368DR,4543,5029,11779,01.128,551
2022-10-14T09:18:40,42.805,6.029,CST-1368DR,4543,5028,11776,01.129,551
2022-10-14T09:21:42,42.805,6.029,CST-1368DR,4543,5029,11779,01.128,551
2022-10-14T09:24:43,42.805,6.029,CST-1368DR,4542,5028,11781,01.127,551
2022-10-14T09:27:45,42.805,6.029,CST-1368DR,4543,5028,11777,01.129,551
2022-10-14T09:30:47,42.805,6.029,CST-1368DR,4542,5027,11777,01.129,551
2022-10-14T09:33:48,42.805,6.029,CST-1368DR,4542,5029,11781,01.127,551
2022-10-14T09:36:50,42.805,6.029,CST-1368DR,4542,5027,11777,01.129,551
2022-10-14T09:39:51,42.805,6.029,CST-1368DR,4542,5027,11776,01.129,551
2022-10-14T09:42:53,42.805,6.029,CST-1368DR,4542,5025,11774,01.130,551
2022-10-14T09:45:54,42.805,6.029,CST-1368DR,4542,5027,11777,01.129,551
2022-10-14T09:48:56,42.805,6.029,CST-1368DR,4542,5028,11779,01.128,551
2022-10-14T09:51:58,42.805,6.029,CST-1368DR,4542,5027,11778,01.128,551
2022-10-14T09:54:59,42.805,6.029,CST-1368DR,4542,5022,11766,01.132,551
2022-10-14T09:58:01,42.805,6.029,CST-1368DR,4542,5025,11774,01.130,551
2022-10-14T10:01:02,42.805,6.029,CST-1368DR,4542,5027,11778,01.128,551
2022-10-14T10:04:04,42.805,6.029,CST-1368DR,4542,5028,11779,01.128,551
2022-10-14T10:07:06,42.805,6.029,CST-1368DR,4542,5027,11777,01.129,551
2022-10-14T10:10:07,42.805,6.029,CST-1368DR,4542,5027,11778,01.128,551
2022-10-14T10:13:09,42.805,6.029,CST-1368DR,4542,5029,11783,01.127,551
2022-10-14T10:16:10,42.805,6.029,CST-1368DR,4542,5027,11777,01.129,551
2022-10-14T10:19:12,42.805,6.029,CST-1368DR,4542,5027,11777,01.129,551
2022-10-14T10:22:13,42.805,6.029,CST-1368DR,4542,5027,11778,01.128,551
2022-10-14T10:25:15,42.805,6.029,CST-1368DR,4542,5026,11776,01.129,551
2022-10-14T10:28:17,42.805,6.029,CST-1368DR,4542,5026,11775,01.129,551
2022-10-14T10:31:18,42.805,6.029,CST-1368DR,4542,5027,11776,01.129,551
2022-10-14T10:34:20,42.805,6.029,CST-1368DR,4542,5027,11778,01.128,551
2022-10-14T10:37:21,42.805,6.029,CST-1368DR,4542,5025,11774,01.130,551
2022-10-14T10:40:23,42.805,6.029,CST-1368DR,4542,5026,11776,01.129,551
2022-10-14T10:43:24,42.805,6.029,CST-1368DR,4542,5024,11771,01.131,551
2022-10-14T10:46:26,42.805,6.029,CST-1368DR,4542,5025,11774,01.130,551
2022-10-14T10:49:28,42.805,6.029,CST-1368DR,4542,5024,11769,01.131,551
2022-10-14T10:52:29,42.805,6.029,CST-1368DR,4542,5025,11774,01.130,551
2022-10-14T10:55:31,42.805,6.029,CST-1368DR,4542,5026,11775,01.129,551
2022-10-14T10:58:32,42.805,6.029,CST-1368DR,4542,5022,11766,01.132,551
2022-10-14T11:01:34,42.805,6.029,CST-1368DR,4542,5026,11774,01.130,551
2022-10-14T11:04:36,42.805,6.029,CST-1368DR,4542,5025,11774,01.130,551
2022-10-14T11:07:37,42.805,6.029,CST-1368DR,4542,5027,11778,01.128,551
2022-10-14T11:10:39,42.805,6.029,CST-1368DR,4542,5025,11774,01.130,551
2022-10-14T11:13:40,42.805,6.029,CST-1368DR,4542,5025,11774,01.130,551
2022-10-14T11:16:42,42.805,6.029,CST-1368DR,4542,5026,11774,01.130,551
2022-10-14T11:19:43,42.805,6.029,CST-1368DR,4542,5025,11773,01.130,551
2022-10-14T11:22:45,42.805,6.029,CST-1368DR,4542,5028,11779,01.128,551
2022-10-14T11:25:47,42.805,6.029,CST-1368DR,4542,5028,11779,01.128,551
2022-10-14T11:28:48,42.805,6.029,CST-1368DR,4542,5027,11778,01.128,551
2022-10-14T11:31:50,42.805,6.029,CST-1368DR,4542,5027,11777,01.129,551
2022-10-14T11:34:51,42.805,6.029,CST-1368DR,4542,5026,11775,01.129,551
2022-10-14T11:37:53,42.805,6.029,CST-1368DR,4542,5025,11774,01.130,551
2022-10-14T11:40:54,42.805,6.029,CST-1368DR,4542,5026,11775,01.129,551
2022-10-14T11:43:56,42.805,6.029,CST-1368DR,4542,5025,11774,01.130,551
2022-10-14T11:46:58,42.805,6.029,CST-1368DR,4542,5025,11773,01.130,551
2022-10-14T11:49:59,42.805,6.029,CST-1368DR,4542,5024,11771,01.131,551
2022-10-14T11:53:01,42.805,6.029,CST-1368DR,4542,5025,11774,01.130,551
2022-10-14T11:56:02,42.805,6.029,CST-1368DR,4542,5021,11764,01.133,551
2022-10-14T11:59:04,42.805,6.029,CST-1368DR,4542,5020,11760,01.134,551
2022-10-14T12:02:06,42.805,6.029,CST-1368DR,4542,5024,11771,01.131,551
2022-10-14T12:05:07,42.805,6.029,CST-1368DR,4542,5025,11773,01.130,551
2022-10-14T12:08:09,42.805,6.029,CST-1368DR,4542,5022,11765,01.133,551
2022-10-14T12:11:10,42.805,6.029,CST-1368DR,4542,5026,11776,01.129,551
2022-10-14T12:14:12,42.805,6.029,CST-1368DR,4542,5025,11772,01.130,551
2022-10-14T12:17:13,42.805,6.029,CST-1368DR,4542,5024,11770,01.131,551
2022-10-14T12:20:15,42.805,6.029,CST-1368DR,4542,5028,11781,01.127,551
2022-10-14T12:23:17,42.805,6.029,CST-1368DR,4542,5026,11775,01.129,551
2022-10-14T12:26:18,42.805,6.029,CST-1368DR,4542,5026,11776,01.129,551
2022-10-14T12:29:20,42.805,6.029,CST-1368DR,4542,5026,11774,01.130,551
2022-10-14T12:32:21,42.805,6.029,CST-1368DR,4542,5026,11776,01.129,551
2022-10-14T12:35:23,42.805,6.029,CST-1368DR,4542,5027,11776,01.129,551
2022-10-14T12:38:24,42.805,6.029,CST-1368DR,4542,5028,11779,01.128,551
2022-10-14T12:41:26,42.805,6.029,CST-1368DR,4542,5029,11782,01.127,551
2022-10-14T12:44:28,42.805,6.029,CST-1368DR,4542,5026,11775,01.129,551
2022-10-14T12:47:29,42.805,6.029,CST-1368DR,4542,5026,11774,01.130,551
2022-10-14T12:50:31,42.805,6.029,CST-1368DR,4542,5025,11772,01.130,551
2022-10-14T12:53:32,42.805,6.029,CST-1368DR,4542,5024,11769,01.131,551
2022-10-14T12:56:34,42.805,6.029,CST-1368DR,4542,5034,11794,01.123,551
2022-10-14T12:59:36,42.805,6.029,CST-1368DR,4542,5028,11779,01.128,551
2022-10-14T13:02:37,42.805,6.029,CST-1368DR,4542,5032,11789,01.125,551
2022-10-14T13:05:39,42.805,6.029,CST-1368DR,4542,5029,11781,01.127,551
2022-10-14T13:08:40,42.805,6.029,CST-1368DR,4542,5027,11778,01.128,551
2022-10-14T13:11:42,42.805,6.029,CST-1368DR,4542,5027,11777,01.129,551
2022-10-14T13:14:43,42.805,6.029,CST-1368DR,4542,5029,11781,01.127,551
2022-10-14T13:17:45,42.805,6.029,CST-1368DR,4542,5030,11783,01.127,551
2022-10-14T13:20:47,42.805,6.029,CST-1368DR,4542,5027,11778,01.128,551
2022-10-14T13:23:48,42.805,6.029,CST-1368DR,4542,5026,11775,01.129,551
2022-10-14T13:26:50,42.805,6.029,CST-1368DR,4542,5027,11776,01.129,551
2022-10-14T13:29:51,42.805,6.029,CST-1368DR,4542,5026,11776,01.129,551
2022-10-14T13:32:53,42.805,6.029,CST-1368DR,4542,5029,11781,01.127,551
2022-10-14T13:35:55,42.805,6.029,CST-1368DR,4542,5028,11779,01.128,551
2022-10-14T13:38:56,42.805,6.029,CST-1368DR,4542,5029,11782,01.127,551
2022-10-14T13:41:58,42.805,6.029,CST-1368DR,4542,5030,11784,01.126,551
2022-10-14T13:44:59,42.805,6.029,CST-1368DR,4542,5031,11788,01.125,551
2022-10-14T13:48:01,42.805,6.029,CST-1368DR,4542,5031,11787,01.125,551
2022-10-14T13:51:02,42.805,6.029,CST-1368DR,4542,5030,11785,01.126,551
2022-10-14T13:54:04,42.805,6.029,CST-1368DR,4542,5026,11775,01.129,551
2022-10-14T13:57:06,42.805,6.029,CST-1368DR,4542,5030,11785,01.126,551
2022-10-14T14:00:07,42.805,6.029,CST-1368DR,4542,5029,11782,01.127,551
2022-10-14T14:03:09,42.805,6.029,CST-1368DR,4542,5028,11779,01.128,551
2022-10-14T14:06:10,42.805,6.029,CST-1368DR,4542,5023,11768,01.132,551
2022-10-14T14:09:12,42.805,6.029,CST-1368DR,4542,5022,11766,01.132,551
2022-10-14T14:12:13,42.805,6.029,CST-1368DR,4542,5028,11779,01.128,551
2022-10-14T14:15:15,42.805,6.029,CST-1368DR,4542,5030,11785,01.126,551
2022-10-14T14:18:17,42.805,6.029,CST-1368DR,4542,5028,11779,01.128,551
2022-10-14T14:21:18,42.805,6.029,CST-1368DR,4542,5029,11782,01.127,551
2022-10-14T14:24:20,42.805,6.029,CST-1368DR,4542,5028,11779,01.128,551
2022-10-14T14:27:21,42.805,6.029,CST-1368DR,4542,5029,11783,01.127,551
2022-10-14T14:30:23,42.805,6.029,CST-1368DR,4542,5029,11782,01.127,551
2022-10-14T14:33:25,42.805,6.029,CST-1368DR,4542,5025,11774,01.130,551
2022-10-14T14:36:26,42.805,6.029,CST-1368DR,4542,5026,11775,01.129,551
2022-10-14T14:39:28,42.805,6.029,CST-1368DR,4542,5030,11785,01.126,551
2022-10-14T14:42:29,42.805,6.029,CST-1368DR,4542,5030,11785,01.126,551
2022-10-14T14:45:31,42.805,6.029,CST-1368DR,4542,5026,11774,01.130,551
2022-10-14T14:48:32,42.805,6.029,CST-1368DR,4542,5030,11784,01.126,551
2022-10-14T14:51:34,42.805,6.029,CST-1368DR,4542,5027,11778,01.128,551
2022-10-14T14:54:36,42.805,6.029,CST-1368DR,4542,5026,11775,01.129,551
2022-10-14T14:57:37,42.805,6.029,CST-1368DR,4542,5026,11775,01.129,551
2022-10-14T15:00:39,42.805,6.029,CST-1368DR,4542,5027,11778,01.128,551
2022-10-14T15:03:40,42.805,6.029,CST-1368DR,4542,5028,11779,01.128,551
2022-10-14T15:06:42,42.805,6.029,CST-1368DR,4542,5027,11778,01.128,551
2022-10-14T15:09:43,42.805,6.029,CST-1368DR,4542,5031,11788,01.125,551
2022-10-14T15:12:45,42.805,6.029,CST-1368DR,4542,5036,11799,01.121,551
2022-10-14T15:15:47,42.805,6.029,CST-1368DR,4542,5030,11785,01.126,551
2022-10-14T15:18:48,42.805,6.029,CST-1368DR,4542,5030,11785,01.126,550
2022-10-14T15:21:50,42.805,6.029,CST-1368DR,4542,5031,11788,01.125,551
2022-10-14T15:24:51,42.805,6.029,CST-1368DR,4542,5033,11792,01.123,551
2022-10-14T15:27:53,42.805,6.029,CST-1368DR,4542,5032,11789,01.125,551
2022-10-14T15:30:55,42.805,6.029,CST-1368DR,4542,5033,11790,01.124,551
2022-10-14T15:33:56,42.805,6.029,CST-1368DR,4542,5033,11791,01.124,551
2022-10-14T15:36:58,42.805,6.029,CST-1368DR,4542,5036,11799,01.121,551
2022-10-14T15:39:59,42.805,6.029,CST-1368DR,4542,5037,11802,01.120,551
2022-10-14T15:43:01,42.805,6.029,CST-1368DR,4542,5040,11807,01.118,551
2022-10-14T15:46:02,42.805,6.029,CST-1368DR,4542,5036,11799,01.121,551
2022-10-14T15:49:04,42.805,6.029,CST-1368DR,4542,5035,11796,01.122,551
2022-10-14T15:52:06,42.805,6.029,CST-1368DR,4542,5042,11812,01.117,551
2022-10-14T15:55:07,42.805,6.029,CST-1368DR,4542,5035,11796,01.122,551
2022-10-14T15:58:09,42.805,6.029,CST-1368DR,4542,5037,11802,01.120,551
2022-10-14T16:01:10,42.805,6.029,CST-1368DR,4542,5036,11799,01.121,551
2022-10-14T16:04:12,42.805,6.029,CST-1368DR,4542,5034,11793,01.123,551
2022-10-14T16:07:13,42.805,6.029,CST-1368DR,4542,5037,11800,01.121,551
2022-10-14T16:10:15,42.805,6.029,CST-1368DR,4542,5034,11794,01.123,551
2022-10-14T16:13:17,42.805,6.029,CST-1368DR,4542,5037,11800,01.121,551
2022-10-14T16:16:18,42.805,6.029,CST-1368DR,4542,5036,11798,01.121,551
2022-10-14T16:19:20,42.805,6.029,CST-1368DR,4542,5036,11799,01.121,551
2022-10-14T16:22:21,42.805,6.029,CST-1368DR,4542,5035,11797,01.122,551
2022-10-14T16:25:23,42.805,6.029,CST-1368DR,4542,5038,11803,01.120,551
2022-10-14T16:28:25,42.805,6.029,CST-1368DR,4542,5036,11799,01.121,551
2022-10-14T16:31:26,42.805,6.029,CST-1368DR,4542,5043,11815,01.116,551
2022-10-14T16:34:28,42.805,6.029,CST-1368DR,4542,5036,11798,01.121,551
2022-10-14T16:37:29,42.805,6.029,CST-1368DR,4542,5036,11798,01.121,551